Location: Elstree
(51.6403°N, 0.2969°W)
Time: 02:05:43
(UTC+00:00)

USA 245 - Pass Details

Date: 03 March 2021
Orbit: 268 x 988 km, 97.9° (Epoch: 09 April)

Event Time Altitude Azimuth Distance (km) Brightness Sun altitude
Exits shadow 21:05:38 72° 331° (NNW) 950 4.4 -30.7°
Drops below altitude 10° 21:11:14 10° 345° (NNW) 2,722 7.4 -31.4°
Sets 21:13:51 0° 346° (NNW) 3,707 8.2 -31.7°
